• In Russia
  • List of Countries
  • For 7 days
  • Water Temperature
  • Satellite Maps
  • Weather Map
  • Weather Widgets
  • user-avatar
    Login

    Hourly Weather Klimonty

    Today, 22 February, Friday

    Time Temperature Precipitation Wind Pressure Humidity
    00:00 -3°C° 0.2 mm 4 mps 751 mmHg 85%
    01:00 -4°C° 0.2 mm 4 mps 751 mmHg 82%
    02:00 -4°C° 0 mm 4 mps 751 mmHg 79%
    03:00 -5°C° 0 mm 5 mps 752 mmHg 74%
    04:00 -5°C° 0 mm 5 mps 753 mmHg 69%
    05:00 -5°C° 0 mm 5 mps 753 mmHg 64%
    06:00 -6°C° 0 mm 5 mps 754 mmHg 63%
    07:00 -8°C° 0 mm 6 mps 756 mmHg 62%
    08:00 -9°C° 0 mm 6 mps 757 mmHg 61%
    09:00 -9°C° 0 mm 6 mps 758 mmHg 56%
    10:00 -8°C° 0 mm 7 mps 759 mmHg 50%
    11:00 -8°C° 0 mm 7 mps 760 mmHg 45%
    12:00 -7°C° 0 mm 7 mps 760 mmHg 43%
    13:00 -7°C° 0 mm 7 mps 761 mmHg 40%
    14:00 -6°C° 0 mm 7 mps 761 mmHg 37%
    15:00 -6°C° 0 mm 7 mps 762 mmHg 38%
    16:00 -5°C° 0 mm 6 mps 762 mmHg 38%
    17:00 -6°C° 0 mm 6 mps 762 mmHg 38%
    18:00 -6°C° 0 mm 6 mps 763 mmHg 41%
    19:00 -6°C° 0 mm 5 mps 763 mmHg 43%
    20:00 -7°C° 0 mm 5 mps 764 mmHg 45%
    21:00 -7°C° 0 mm 5 mps 764 mmHg 46%
    22:00 -7°C° 0 mm 5 mps 765 mmHg 47%
    23:00 -7°C° 0 mm 4 mps 766 mmHg 49%

    Tomorrow, 23 February, Saturday

    Time Temperature Precipitation Wind Pressure Humidity
    00:00 -7°C° 0 mm 4 mps 766 mmHg 51%
    01:00 -7°C° 0 mm 4 mps 766 mmHg 53%
    02:00 -7°C° 0 mm 4 mps 767 mmHg 55%
    03:00 -7°C° 0 mm 3 mps 767 mmHg 57%
    04:00 -7°C° 0 mm 3 mps 767 mmHg 58%
    05:00 -7°C° 0 mm 3 mps 767 mmHg 60%
    06:00 -6°C° 0 mm 2 mps 768 mmHg 62%
    07:00 -7°C° 0 mm 2 mps 768 mmHg 63%
    08:00 -6°C° 0 mm 1 mps 768 mmHg 65%
    09:00 -6°C° 0 mm 2 mps 768 mmHg 59%
    10:00 -5°C° 0 mm 2 mps 768 mmHg 54%
    11:00 -4°C° 0 mm 2 mps 769 mmHg 48%
    12:00 -3°C° 0 mm 2 mps 768 mmHg 44%
    13:00 -3°C° 0 mm 2 mps 768 mmHg 41%
    14:00 0°C° 0 mm 1 mps 768 mmHg 37%
    15:00 -2°C° 0 mm 2 mps 767 mmHg 38%
    16:00 -2°C° 0 mm 2 mps 767 mmHg 39%
    17:00 -2°C° 0 mm 2 mps 767 mmHg 40%
    18:00 -2°C° 0 mm 2 mps 767 mmHg 43%
    19:00 -2°C° 0 mm 2 mps 767 mmHg 45%
    20:00 -3°C° 0 mm 2 mps 766 mmHg 48%
    21:00 -4°C° 0 mm 3 mps 766 mmHg 48%
    22:00 -4°C° 0 mm 3 mps 766 mmHg 47%
    23:00 -4°C° 0 mm 4 mps 765 mmHg 47%

    Day after tomorrow, 24 February, Sunday

    Time Temperature Precipitation Wind Pressure Humidity
    00:00 -4°C° 0 mm 3 mps 765 mmHg 47%
    01:00 -2°C° 0 mm 3 mps 765 mmHg 46%
    02:00 -2°C° 0 mm 3 mps 765 mmHg 46%
    03:00 -4°C° 0 mm 4 mps 765 mmHg 46%
    04:00 -4°C° 0 mm 4 mps 764 mmHg 47%
    05:00 -4°C° 0 mm 4 mps 764 mmHg 47%
    06:00 -4°C° 0 mm 4 mps 764 mmHg 48%
    07:00 -4°C° 0 mm 4 mps 763 mmHg 49%
    08:00 -5°C° 0 mm 4 mps 763 mmHg 50%
    09:00 -4°C° 0 mm 4 mps 763 mmHg 49%
    10:00 -2°C° 0 mm 3 mps 763 mmHg 48%
    11:00 -1°C° 0 mm 3 mps 763 mmHg 46%
    12:00 0°C° 0 mm 3 mps 763 mmHg 47%
    13:00 +1°C° 0 mm 3 mps 763 mmHg 47%
    14:00 +2°C° 0 mm 3 mps 763 mmHg 48%
    15:00 +1°C° 0 mm 3 mps 762 mmHg 51%
    16:00 +1°C° 0 mm 3 mps 762 mmHg 55%
    17:00 +1°C° 0 mm 3 mps 762 mmHg 58%
    18:00 0°C° 0 mm 3 mps 762 mmHg 60%
    19:00 0°C° 0 mm 3 mps 762 mmHg 62%
    20:00 0°C° 0 mm 3 mps 762 mmHg 64%
    21:00 -1°C° 0 mm 3 mps 762 mmHg 67%
    22:00 -1°C° 0 mm 3 mps 762 mmHg 70%
    23:00 -1°C° 0 mm 3 mps 761 mmHg 72%

    25 February, Monday

    Time Temperature Precipitation Wind Pressure Humidity
    00:00 -1°C° 0 mm 3 mps 761 mmHg 75%
    01:00 -2°C° 0 mm 4 mps 761 mmHg 78%
    02:00 -2°C° 0 mm 4 mps 761 mmHg 80%
    03:00 -2°C° 0 mm 4 mps 761 mmHg 83%
    04:00 -2°C° 0 mm 4 mps 761 mmHg 87%
    05:00 -2°C° 0 mm 4 mps 760 mmHg 90%
    06:00 -2°C° 0 mm 4 mps 761 mmHg 92%
    07:00 -2°C° 0 mm 4 mps 761 mmHg 93%
    08:00 -1°C° 0 mm 4 mps 761 mmHg 95%
    09:00 0°C° 0 mm 4 mps 761 mmHg 90%
    10:00 0°C° 0 mm 4 mps 762 mmHg 86%
    11:00 +1°C° 0 mm 4 mps 762 mmHg 81%
    12:00 +3°C° 0 mm 4 mps 762 mmHg 75%
    13:00 +4°C° 0 mm 4 mps 762 mmHg 68%
    14:00 +6°C° 0 mm 5 mps 761 mmHg 62%
    15:00 +5°C° 0 mm 4 mps 761 mmHg 64%
    16:00 +4°C° 0 mm 4 mps 761 mmHg 67%
    17:00 +3°C° 0 mm 3 mps 761 mmHg 70%
    18:00 +2°C° 0 mm 3 mps 761 mmHg 74%
    19:00 +1°C° 0 mm 3 mps 761 mmHg 79%
    20:00 +1°C° 0 mm 3 mps 761 mmHg 83%
    21:00 0°C° 0 mm 4 mps 760 mmHg 85%
    22:00 0°C° 0 mm 4 mps 759 mmHg 87%
    23:00 0°C° 0 mm 4 mps 759 mmHg 89%

    26 February, Tuesday

    Time Temperature Precipitation Wind Pressure Humidity
    00:00 0°C° 0 mm 5 mps 758 mmHg 90%
    01:00 0°C° 0 mm 5 mps 758 mmHg 90%
    02:00 0°C° 0 mm 5 mps 757 mmHg 91%
    03:00 0°C° 0 mm 5 mps 756 mmHg 88%
    04:00 0°C° 0 mm 5 mps 755 mmHg 85%
    05:00 -1°C° 0 mm 5 mps 755 mmHg 82%
    06:00 -1°C° 0 mm 5 mps 754 mmHg 80%
    07:00 -1°C° 0 mm 5 mps 754 mmHg 78%
    08:00 -1°C° 0 mm 5 mps 753 mmHg 77%
    09:00 -1°C° 0 mm 6 mps 753 mmHg 75%
    10:00 +2°C° 0 mm 7 mps 753 mmHg 73%
    11:00 +2°C° 0 mm 8 mps 753 mmHg 71%
    12:00 +4°C° 0 mm 8 mps 753 mmHg 69%
    13:00 +5°C° 0 mm 8 mps 753 mmHg 66%
    14:00 +6°C° 0 mm 8 mps 752 mmHg 64%
    15:00 +6°C° 0 mm 8 mps 752 mmHg 62%
    16:00 +5°C° 0 mm 8 mps 752 mmHg 61%
    17:00 +5°C° 0 mm 7 mps 752 mmHg 59%
    18:00 +4°C° 0 mm 8 mps 752 mmHg 61%
    19:00 +2°C° 0 mm 8 mps 753 mmHg 63%
    20:00 +1°C° 0 mm 8 mps 753 mmHg 65%
    21:00 0°C° 0 mm 8 mps 753 mmHg 68%
    22:00 0°C° 0 mm 8 mps 753 mmHg 71%
    23:00 -1°C° 0 mm 7 mps 753 mmHg 74%

    27 February, Wednesday

    Time Temperature Precipitation Wind Pressure Humidity
    00:00 -1°C° 0 mm 7 mps 753 mmHg 75%
    01:00 -2°C° 0 mm 7 mps 753 mmHg 76%
    02:00 -2°C° 0 mm 7 mps 753 mmHg 78%
    03:00 -2°C° 0 mm 7 mps 754 mmHg 79%
    04:00 -2°C° 0 mm 6 mps 754 mmHg 81%
    05:00 -3°C° 0 mm 6 mps 754 mmHg 82%
    06:00 -3°C° 0 mm 6 mps 754 mmHg 83%
    07:00 -3°C° 0 mm 6 mps 754 mmHg 83%
    08:00 -2°C° 0 mm 5 mps 754 mmHg 84%
    09:00 -1°C° 0 mm 5 mps 755 mmHg 79%
    10:00 0°C° 0 mm 5 mps 755 mmHg 74%
    11:00 +1°C° 0 mm 5 mps 755 mmHg 69%
    12:00 +2°C° 0 mm 5 mps 755 mmHg 67%
    13:00 +4°C° 0 mm 4 mps 754 mmHg 64%
    14:00 +5°C° 0 mm 4 mps 754 mmHg 62%
    15:00 +5°C° 0 mm 3 mps 754 mmHg 63%
    16:00 +5°C° 0 mm 3 mps 753 mmHg 64%
    17:00 +5°C° 0 mm 2 mps 753 mmHg 65%
    18:00 +4°C° 0 mm 2 mps 753 mmHg 67%
    19:00 +4°C° 0 mm 2 mps 752 mmHg 70%
    20:00 +3°C° 0 mm 2 mps 752 mmHg 72%
    21:00 +2°C° 0 mm 2 mps 751 mmHg 73%
    22:00 +1°C° 0 mm 3 mps 751 mmHg 74%
    23:00 +1°C° 0 mm 3 mps 750 mmHg 75%
    Show more